Weather History for Chipley, FL

Change the Weather History Date:

Monday, August 5, 2013

  Actual Average (KMAI) Record (KMAI)
Temperature  
Mean Temperature 90 °F 82 °F  
Max Temperature 98 °F 91 °F 99 °F (2010)
Min Temperature 82 °F 73 °F 69 °F (2002)
Degree Days  
Heating Degree Days 0    
Month to date heating degree days  
Since 1 June heating degree days  
Since 1 July heating degree days  
Cooling Degree Days 25    
Month to date cooling degree days  
Year to date cooling degree days  
Since 1 June cooling degree days  
Growing Degree Days 40 (Base 50)    
Moisture  
Dew Point 73 °F    
Average Humidity 63    
Maximum Humidity 74    
Minimum Humidity 42    
Precipitation  
Precipitation 0.03 in 0.23 in 0.76 in (2011)
Month to date precipitation 1.08  
Year to date precipitation 33.98  
Sea Level Pressure  
Sea Level Pressure 30.02 in    
Wind  
Wind Speed 4 mph (West)    
Max Wind Speed 8 mph    
Max Gust Speed -    
Visibility 10 miles    
Events      
T = Trace of Precipitation, MM = Missing Value Source: NWS Daily Summary

Daily Weather History Graph

Daily Weather History Graph

Search for Another Location

Airport:

Trip Planner

Search our weather history database for the weather conditions in past years. The results will help you decide how hot, cold, wet, or windy it might be!

Date:

Astronomy

Aug. 05, 2013 Rise Set
Actual Time 6:02 AM CDT 7:33 PM CDT
Civil Twilight 5:36 AM CDT 7:59 PM CDT
Nautical Twilight 5:05 AM CDT 8:30 PM CDT
Astronomical Twilight 4:33 AM CDT 9:02 PM CDT
Moon 4:56 AM CDT (8/5) 6:36 PM CDT (8/5)
Length of Visible Light 14h 22m
Length of Day
13h 30m
Waning Crescent, 1% of the Moon is Illuminated
Aug 5
Waning Crescent
Aug 6
New
Aug 14
First Quarter
Aug 20
Full
Aug 28
Last Quarter

Hourly Weather History & Observations

Time (CDT) Temp. Heat Index Dew Point Humidity Pressure Visibility Wind Dir Wind Speed Gust Speed Precip Events Conditions
12:15 AM 84.2 °F 90.9 °F 73.4 °F 70% 30.06 in 10.0 mi SSW 4.6 mph - N/A   Clear
12:35 AM 84.2 °F 90.9 °F 73.4 °F 70% 30.06 in 10.0 mi Calm Calm - N/A   Clear
12:55 AM 84.2 °F 90.9 °F 73.4 °F 70% 30.06 in 10.0 mi Calm Calm - N/A   Clear
1:15 AM 84.2 °F 90.9 °F 73.4 °F 70% 30.05 in 10.0 mi SW 3.5 mph - N/A   Clear
1:35 AM 84.2 °F 90.9 °F 73.4 °F 70% 30.05 in 10.0 mi SW 3.5 mph - N/A   Clear
1:55 AM 84.2 °F 90.9 °F 73.4 °F 70% 30.04 in 10.0 mi West 3.5 mph - N/A   Clear
2:15 AM 84.2 °F 90.9 °F 73.4 °F 70% 30.04 in 10.0 mi WNW 3.5 mph - N/A   Clear
2:35 AM 82.4 °F 88.2 °F 73.4 °F 74% 30.04 in 10.0 mi Calm Calm - N/A   Clear
2:55 AM 84.2 °F 90.9 °F 73.4 °F 70% 30.03 in 10.0 mi Calm Calm - N/A   Clear
3:15 AM 84.2 °F 90.9 °F 73.4 °F 70% 30.02 in 10.0 mi West 3.5 mph - N/A   Clear
3:35 AM 82.4 °F 88.2 °F 73.4 °F 74% 30.02 in 10.0 mi Calm Calm - N/A   Clear
3:55 AM 82.4 °F 88.2 °F 73.4 °F 74% 30.03 in 10.0 mi West 3.5 mph - N/A   Clear
4:15 AM 82.4 °F 88.2 °F 73.4 °F 74% 30.03 in 10.0 mi Calm Calm - N/A   Clear
4:35 AM 82.4 °F 88.2 °F 73.4 °F 74% 30.03 in 10.0 mi WSW 3.5 mph - N/A   Partly Cloudy
4:55 AM 82.4 °F 88.2 °F 73.4 °F 74% 30.03 in 10.0 mi Calm Calm - N/A   Partly Cloudy
5:15 AM 82.4 °F 88.2 °F 73.4 °F 74% 30.03 in 10.0 mi Calm Calm - N/A   Clear
5:35 AM 82.4 °F 88.2 °F 73.4 °F 74% 30.03 in 10.0 mi Calm Calm - N/A   Clear
5:55 AM 82.4 °F 88.2 °F 73.4 °F 74% 30.04 in 10.0 mi West 3.5 mph - N/A   Clear
6:15 AM 82.4 °F 88.2 °F 73.4 °F 74% 30.04 in 10.0 mi West 3.5 mph - N/A   Clear
6:35 AM 82.4 °F 88.2 °F 73.4 °F 74% 30.05 in 10.0 mi WSW 3.5 mph - N/A   Clear
6:55 AM 82.4 °F 88.2 °F 73.4 °F 74% 30.05 in 10.0 mi West 3.5 mph - N/A   Clear
7:15 AM 82.4 °F 88.2 °F 73.4 °F 74% 30.06 in 10.0 mi Calm Calm - N/A   Clear
7:35 AM 84.2 °F 90.9 °F 73.4 °F 70% 30.06 in 10.0 mi WNW 5.8 mph - N/A   Clear
7:55 AM 84.2 °F 90.9 °F 73.4 °F 70% 30.06 in 10.0 mi WNW 6.9 mph - N/A   Clear
8:15 AM 86.0 °F 93.4 °F 73.4 °F 66% 30.07 in 10.0 mi WNW 6.9 mph - N/A   Clear
8:35 AM 86.0 °F 93.4 °F 73.4 °F 66% 30.07 in 10.0 mi WNW 4.6 mph - N/A   Partly Cloudy
8:55 AM 86.0 °F 93.4 °F 73.4 °F 66% 30.07 in 10.0 mi NW 6.9 mph - N/A   Mostly Cloudy
9:15 AM 87.8 °F 95.6 °F 73.4 °F 62% 30.07 in 10.0 mi NW 5.8 mph - N/A   Mostly Cloudy
9:35 AM 87.8 °F 95.6 °F 73.4 °F 62% 30.08 in 10.0 mi WNW 8.1 mph - N/A   Scattered Clouds
9:55 AM 87.8 °F 95.6 °F 73.4 °F 62% 30.08 in 10.0 mi NW 8.1 mph - N/A   Scattered Clouds
10:15 AM 87.8 °F 95.6 °F 73.4 °F 62% 30.07 in 10.0 mi North 8.1 mph - N/A   Scattered Clouds
10:35 AM 87.8 °F 95.6 °F 73.4 °F 62% 30.08 in 10.0 mi NW 6.9 mph - N/A   Mostly Cloudy
10:55 AM 87.8 °F 95.6 °F 73.4 °F 62% 30.08 in 10.0 mi NNW 6.9 mph - N/A   Mostly Cloudy
11:15 AM 91.4 °F 100.1 °F 73.4 °F 55% 30.07 in 10.0 mi WNW 6.9 mph - N/A   Scattered Clouds
11:35 AM 89.6 °F 98.2 °F 73.4 °F 59% 30.07 in 10.0 mi NW 5.8 mph - N/A   Mostly Cloudy
11:55 AM 89.6 °F 98.2 °F 73.4 °F 59% 30.06 in 10.0 mi NNW 4.6 mph - N/A   Mostly Cloudy
12:15 PM 89.6 °F 98.2 °F 73.4 °F 59% 30.05 in 10.0 mi NNW 5.8 mph - N/A   Unknown
12:35 PM 91.4 °F 102.5 °F 75.2 °F 59% 30.05 in 10.0 mi North 4.6 mph - N/A   Scattered Clouds
12:55 PM 91.4 °F 102.5 °F 75.2 °F 59% 30.04 in 10.0 mi NW 5.8 mph - N/A   Partly Cloudy
1:15 PM 93.2 °F 102.4 °F 73.4 °F 52% 30.04 in 10.0 mi NW 4.6 mph - N/A   Scattered Clouds
1:35 PM 91.4 °F 100.1 °F 73.4 °F 55% 30.03 in 10.0 mi NW 3.5 mph - N/A   Mostly Cloudy
1:55 PM 91.4 °F 100.1 °F 73.4 °F 55% 30.02 in 10.0 mi North 8.1 mph - N/A   Overcast
2:15 PM 93.2 °F 102.4 °F 73.4 °F 52% 30.01 in 10.0 mi North 4.6 mph - N/A   Mostly Cloudy
2:35 PM 93.2 °F 102.4 °F 73.4 °F 52% 30.00 in 10.0 mi West 3.5 mph - N/A   Mostly Cloudy
2:55 PM 93.2 °F 102.4 °F 73.4 °F 52% 30.00 in 10.0 mi NNW 4.6 mph - N/A   Scattered Clouds
3:15 PM 95.0 °F 104.5 °F 73.4 °F 49% 29.99 in 10.0 mi WSW 3.5 mph - N/A   Mostly Cloudy
3:35 PM 98.6 °F 109.2 °F 73.4 °F 44% 29.98 in 10.0 mi Calm Calm - N/A   Partly Cloudy
3:55 PM 95.0 °F 104.5 °F 73.4 °F 49% 29.97 in 10.0 mi SW 4.6 mph - N/A   Mostly Cloudy
4:15 PM 98.6 °F 107.7 °F 71.6 °F 42% 29.97 in 10.0 mi West 4.6 mph - N/A   Mostly Cloudy
4:35 PM 98.6 °F 107.7 °F 71.6 °F 42% 29.96 in 10.0 mi WSW 4.6 mph - N/A   Partly Cloudy
4:55 PM 96.8 °F 105.1 °F 71.6 °F 44% 29.97 in 10.0 mi WSW 6.9 mph - N/A   Partly Cloudy
5:15 PM 96.8 °F 105.1 °F 71.6 °F 44% 29.97 in 10.0 mi SSW 8.1 mph - N/A   Mostly Cloudy
5:35 PM 96.8 °F 107.3 °F 73.4 °F 47% 29.97 in 10.0 mi SW 6.9 mph - N/A   Overcast
5:55 PM 93.2 °F 102.4 °F 73.4 °F 52% 29.97 in 10.0 mi WSW 3.5 mph - N/A   Overcast
6:15 PM 89.6 °F 104.7 °F 78.8 °F 70% 29.98 in 10.0 mi SSW 6.9 mph - 0.03 in   Overcast
6:35 PM 91.4 °F 102.5 °F 75.2 °F 59% 29.98 in 10.0 mi SW 8.1 mph - 0.03 in   Scattered Clouds
6:55 PM 91.4 °F 102.5 °F 75.2 °F 59% 29.98 in 10.0 mi SSW 8.1 mph - 0.03 in   Clear
7:15 PM 91.4 °F 100.1 °F 73.4 °F 55% 29.98 in 10.0 mi SW 6.9 mph - N/A   Clear
7:35 PM 91.4 °F 100.1 °F 73.4 °F 55% 29.99 in 10.0 mi SW 5.8 mph - N/A   Clear
7:55 PM 89.6 °F 96.2 °F 71.6 °F 55% 29.98 in 10.0 mi SW 5.8 mph - N/A   Scattered Clouds
8:15 PM 89.6 °F 98.2 °F 73.4 °F 59% 29.99 in 10.0 mi Calm Calm - N/A   Partly Cloudy
8:35 PM 89.6 °F 98.2 °F 73.4 °F 59% 30.00 in 10.0 mi SSW 5.8 mph - N/A   Clear
8:55 PM 87.8 °F 95.6 °F 73.4 °F 62% 29.99 in 10.0 mi SW 4.6 mph - N/A   Clear
9:15 PM 87.8 °F 95.6 °F 73.4 °F 62% 29.99 in 10.0 mi SW 3.5 mph - N/A   Unknown
9:35 PM 87.8 °F 95.6 °F 73.4 °F 62% 30.00 in 10.0 mi SW 4.6 mph - N/A   Clear
9:55 PM 87.8 °F 95.6 °F 73.4 °F 62% 30.00 in 10.0 mi WSW 5.8 mph - N/A   Clear
10:15 PM 86.0 °F 93.4 °F 73.4 °F 66% 30.01 in 10.0 mi West 5.8 mph - N/A   Clear
10:35 PM 86.0 °F 93.4 °F 73.4 °F 66% 30.01 in 10.0 mi WSW 4.6 mph - N/A   Clear
10:55 PM 84.2 °F 90.9 °F 73.4 °F 70% 30.01 in 10.0 mi SSW 4.6 mph - N/A   Partly Cloudy
11:15 PM 84.2 °F 90.9 °F 73.4 °F 70% 30.01 in 10.0 mi SW 3.5 mph - N/A   Scattered Clouds
11:35 PM 84.2 °F 90.9 °F 73.4 °F 70% 30.00 in 10.0 mi SSW 4.6 mph - N/A   Mostly Cloudy
11:55 PM 84.2 °F 90.9 °F 73.4 °F 70% 30.00 in 10.0 mi SSW 3.5 mph - N/A   Partly Cloudy